Flag for French Polynesia Weather past 2 weeks in Gambier Islands, French Polynesia

Now
77 °F

Warm.


Feels Like: 79 °F
Forecast: 76 / 80 °F
Wind: 12 mph from North

Location: Rikitea

Current Time: Dec 22, 2014 at 3:09:00 PM

Latest Report: Dec 22, 2014 at 2:00 PM


Visibility: N/A

Pressure: 29.82 "Hg

Humidity: 85%

Dew point: 72 °F

Location of Gambier IslandsLocation

Historic Weather in Gambier Islands — Graph

°F

Gambier Islands temperature yesterday

Maximum temperature yesterday: 81 °F (at 11:00 AM)
Minimum temperature yesterday: 71 °F (at 7:00 PM)
Average temperature yesterday: 75 °F

Past Weeks' High & Low Weather Summary

 TemperatureHumidityPressure
High83 °F (Dec 13, 2:00 PM)96% (Dec 20, 6:00 PM)30.14 "Hg (Dec 20, 6:00 PM)
Low71 °F (Dec 20, 12:00 AM)61% (Dec 13, 2:00 PM)29.80 "Hg (Dec 20, 4:00 AM)
Average76 °F84%29.99 "Hg
* Reported Dec 7 1:00 PM — Dec 22 1:00 PM, Gambier Islands, Weather by CustomWeather, © 2014

Note: Actual official high and low records may vary slightly from our data, if they occured in-between our weather recording intervals... More about our weather records

Advertising

Gambier Islands weather history for previous 24 hours

 ConditionsComfort  
Time TempWeatherWind HumidityBarometerVisibility
1:00 PM
Dec 22
78 °FOvercast.12 mph83%29.84 "Hg19 mi
12:00 PM77 °FOvercast.10 mph85%29.85 "Hg19 mi
11:00 AM77 °FWarm.12 mph83%29.86 "HgN/A
10:00 AM78 °FScattered clouds.12 mph82%29.87 "Hg19 mi
9:00 AM77 °FScattered clouds.10 mph84%29.88 "Hg19 mi
8:00 AM77 °FWarm.10 mph84%29.88 "HgN/A
7:00 AM77 °FScattered clouds.12 mph83%29.88 "Hg19 mi
6:00 AM76 °FPassing clouds.12 mph86%29.87 "Hg19 mi
5:00 AM76 °FMild.10 mph88%29.85 "HgN/A
4:00 AM76 °FMild.8 mph88%29.85 "HgN/A
3:00 AM76 °FMild.9 mph88%29.84 "HgN/A
2:00 AM76 °FMild.10 mph90%29.85 "HgN/A
1:00 AM76 °FMild.10 mph91%29.87 "HgN/A
12:00 AM76 °FMild.9 mph92%29.89 "HgN/A
11:00 PM
Dec 21
76 °FMild.9 mph92%29.92 "HgN/A
10:00 PM76 °FMild.10 mph94%29.93 "HgN/A
9:00 PM74 °FMild.10 mph95%29.92 "HgN/A
8:00 PM72 °FMild.8 mph95%29.91 "HgN/A
7:00 PM71 °FMild.5 mph90%29.91 "HgN/A
5:00 PM75 °FOvercast.7 mph87%29.86 "Hg12 mi
4:00 PM74 °FOvercast.9 mph90%29.86 "Hg6 mi
3:00 PM77 °FOvercast.7 mph85%29.85 "Hg12 mi
Weather by CustomWeather, © 2014

See weather overviewHow to use our weather pages